Flag for Germany Weather past 2 weeks in Weyhe, Lower Saxony, Germany

Now
54 °F

Light rain. Partly sunny.


Feels Like: 50 °F
Forecast: 49 / 58 °F
Wind: 12 mph from Southwest

Location: Bremen Airport

Current Time: Apr 25, 2015 at 1:21:07 PM

Latest Report: Apr 25, 2015 at 12:50 PM


Visibility: 5 mi

Pressure: 29.74 "Hg

Humidity: 82%

Dew point: 48 °F

Location of WeyheLocation

Historic Weather in Weyhe — Graph

°F

Weyhe temperature yesterday

Maximum temperature yesterday: 66 °F (at 4:20 PM)
Minimum temperature yesterday: 41 °F (at 8:20 AM)
Average temperature yesterday: 53 °F

Past Weeks' High & Low Weather Summary

 TemperatureHumidityPressure
High72 °F (Apr 15, 2:50 PM)100% (Apr 14, 1:20 AM)30.42 "Hg (Apr 14, 1:20 AM)
Low36 °F (Apr 14, 1:20 AM)31% (Apr 19, 5:20 PM)29.71 "Hg (Apr 25, 4:20 AM)
Average50 °F71%30.16 "Hg
* Reported Apr 10 12:20 PM — Apr 25 12:20 PM, Weyhe, Weather by CustomWeather, © 2015

Note: Actual official high and low records may vary slightly from our data, if they occured in-between our weather recording intervals... More about our weather records

Advertising

Weyhe weather history for previous 24 hours

 ConditionsComfort  
Time TempWeatherWind HumidityBarometerVisibility
12:20 PM
Sat, Apr 25
55 °FLight rain. Partly sunny.10 mph77%29.74 "Hg5 mi
11:50 AM55 °FLight rain. Scattered clouds.7 mph82%29.74 "Hg4 mi
11:20 AM54 °FLight rain. Broken clouds.3 mph88%29.74 "Hg5 mi
10:50 AM54 °FLight rain. Broken clouds.5 mph88%29.74 "Hg5 mi
10:20 AM54 °FLight rain. Broken clouds.8 mph88%29.74 "Hg5 mi
9:50 AM55 °FBroken clouds.8 mph77%29.74 "HgN/A
9:20 AM54 °FLight rain. Broken clouds.9 mph82%29.74 "HgN/A
8:50 AM54 °FBroken clouds.5 mph82%29.71 "HgN/A
8:20 AM52 °FBroken clouds.5 mph82%29.74 "HgN/A
7:50 AM54 °FPartly sunny.5 mph72%29.74 "HgN/A
7:20 AM52 °FPartly sunny.7 mph82%29.74 "HgN/A
6:50 AM52 °FMostly cloudy.5 mph72%29.71 "HgN/A
6:20 AM50 °FClear.5 mph76%29.71 "Hg10 mi
5:20 AM50 °FClear.5 mph76%29.71 "Hg10 mi
4:50 AM52 °FClear.2 mph72%29.71 "Hg10 mi
4:20 AM50 °FClear.2 mph76%29.71 "Hg10 mi
3:50 AM52 °FClear.1 mph67%29.74 "Hg10 mi
3:20 AM50 °FClear.5 mph76%29.74 "Hg10 mi
2:50 AM52 °FClear.3 mph67%29.74 "Hg10 mi
2:20 AM52 °FClear.1 mph67%29.74 "Hg10 mi
1:50 AM54 °FClear.2 mph67%29.74 "Hg10 mi
1:20 AM52 °FClear.2 mph67%29.77 "Hg10 mi
12:50 AM52 °FClear.3 mph72%29.77 "Hg10 mi
12:20 AM50 °FClear.5 mph76%29.77 "Hg10 mi
11:50 PM
Fri, Apr 24
52 °FClear.3 mph67%29.77 "Hg10 mi
11:20 PM54 °FClear.5 mph63%29.77 "Hg10 mi
10:50 PM52 °FClear.5 mph67%29.77 "Hg10 mi
10:20 PM54 °FClear.5 mph63%29.77 "Hg10 mi
9:50 PM55 °FClear.5 mph63%29.80 "Hg10 mi
9:20 PM57 °FSunny.5 mph55%29.80 "Hg10 mi
8:50 PM57 °FSunny.6 mph55%29.80 "Hg10 mi
8:20 PM57 °FSunny.6 mph55%29.80 "Hg10 mi
7:50 PM61 °FSunny.8 mph48%29.80 "Hg10 mi
7:20 PM64 °FSunny.10 mph43%29.80 "Hg10 mi
6:50 PM66 °FSunny.7 mph43%29.80 "Hg10 mi
6:20 PM66 °FSunny.7 mph43%29.80 "Hg10 mi
5:50 PM66 °FSunny.13 mph37%29.80 "Hg10 mi
5:20 PM66 °FSunny.13 mph35%29.83 "Hg10 mi
4:50 PM66 °FPassing clouds.12 mph40%29.83 "HgN/A
4:20 PM66 °FPassing clouds.12 mph37%29.83 "HgN/A
3:50 PM64 °FPassing clouds.12 mph37%29.83 "HgN/A
3:20 PM64 °FPassing clouds.10 mph43%29.86 "HgN/A
2:50 PM64 °FPassing clouds.10 mph46%29.86 "HgN/A
2:20 PM64 °FPartly sunny.9 mph46%29.86 "HgN/A
1:50 PM63 °FPartly sunny.12 mph45%29.89 "HgN/A
1:20 PM63 °FPartly sunny.10 mph45%29.89 "HgN/A
Weather by CustomWeather, © 2015

See weather overviewHow to use our weather pages